Time,TemperatureF,DewpointF,PressureIn,WindDirection,WindDirectionDegrees,WindSpeedMPH,WindSpeedGustMPH,Humidity,HourlyPrecipIn,Conditions,Clouds,dailyrainin,SoftwareType,DateUTC
2013-05-08 00:04:00,57.4,56.0,30.14,ESE,121,0.0,-999.0,96,-99.99,,,0.00,weatherlink.com 1.10,2013-05-08 04:04:00,
2013-05-08 00:19:00,57.5,56.0,30.14,ESE,121,0.0,-999.0,95,-99.99,,,0.00,weatherlink.com 1.10,2013-05-08 04:19:00,
2013-05-08 00:34:00,57.4,56.0,30.14,ESE,121,0.0,-999.0,94,-99.99,,,0.00,weatherlink.com 1.10,2013-05-08 04:34:00,
2013-05-08 00:49:00,57.1,55.0,30.14,ESE,121,0.0,-999.0,94,-99.99,,,0.00,weatherlink.com 1.10,2013-05-08 04:49:00,
2013-05-08 01:04:00,57.1,56.0,30.13,ESE,121,0.0,-999.0,95,-99.99,,,0.00,weatherlink.com 1.10,2013-05-08 05:04:00,
2013-05-08 01:19:00,56.6,55.0,30.12,ESE,121,0.0,-999.0,94,-99.99,,,0.00,weatherlink.com 1.10,2013-05-08 05:19:00,
2013-05-08 01:34:00,56.2,55.0,30.11,ESE,121,0.0,-999.0,95,-99.99,,,0.00,weatherlink.com 1.10,2013-05-08 05:34:00,
2013-05-08 01:49:00,56.5,56.0,30.12,SE,128,0.0,-999.0,97,-99.99,,,0.00,weatherlink.com 1.10,2013-05-08 05:49:00,
2013-05-08 02:04:00,55.8,55.0,30.12,East,101,0.0,-999.0,96,-99.99,,,0.00,weatherlink.com 1.10,2013-05-08 06:04:00,
2013-05-08 02:19:00,55.5,54.0,30.11,East,101,2.0,-999.0,95,-99.99,,,0.00,weatherlink.com 1.10,2013-05-08 06:19:00,
2013-05-08 02:34:00,55.6,55.0,30.12,East,101,0.0,-999.0,96,-99.99,,,0.00,weatherlink.com 1.10,2013-05-08 06:34:00,
2013-05-08 02:49:00,55.6,55.0,30.11,East,101,0.0,-999.0,97,-99.99,,,0.00,weatherlink.com 1.10,2013-05-08 06:49:00,
2013-05-08 03:04:00,55.3,54.0,30.11,East,101,0.0,-999.0,96,-99.99,,,0.00,weatherlink.com 1.10,2013-05-08 07:04:00,
2013-05-08 03:19:00,55.0,54.0,30.11,East,101,0.0,-999.0,96,-99.99,,,0.00,weatherlink.com 1.10,2013-05-08 07:19:00,
2013-05-08 03:34:00,54.9,54.0,30.10,East,101,0.0,-999.0,97,-99.99,,,0.00,weatherlink.com 1.10,2013-05-08 07:34:00,
2013-05-08 03:49:00,55.3,55.0,30.10,East,101,0.0,-999.0,98,-99.99,,,0.00,weatherlink.com 1.10,2013-05-08 07:49:00,
2013-05-08 04:04:00,54.9,54.0,30.09,East,101,0.0,-999.0,97,-99.99,,,0.00,weatherlink.com 1.10,2013-05-08 08:04:00,
2013-05-08 04:19:00,54.8,54.0,30.09,East,101,0.0,-999.0,97,-99.99,,,0.00,weatherlink.com 1.10,2013-05-08 08:19:00,
2013-05-08 04:34:00,54.4,53.0,30.10,East,101,0.0,-999.0,96,-99.99,,,0.00,weatherlink.com 1.10,2013-05-08 08:34:00,
2013-05-08 04:49:00,54.0,53.0,30.10,East,101,0.0,-999.0,96,-99.99,,,0.00,weatherlink.com 1.10,2013-05-08 08:49:00,
2013-05-08 05:04:00,53.9,53.0,30.10,East,101,0.0,-999.0,97,-99.99,,,0.00,weatherlink.com 1.10,2013-05-08 09:04:00,
2013-05-08 05:19:00,54.0,53.0,30.10,East,100,0.0,-999.0,97,-99.99,,,0.00,weatherlink.com 1.10,2013-05-08 09:19:00,
2013-05-08 05:34:00,55.5,55.0,30.10,NNE,30,0.0,-999.0,99,-99.99,,,0.00,weatherlink.com 1.10,2013-05-08 09:34:00,
2013-05-08 05:49:00,56.2,56.0,30.10,NNE,31,0.0,-999.0,99,-99.99,,,0.00,weatherlink.com 1.10,2013-05-08 09:49:00,
2013-05-08 06:04:00,56.9,57.0,30.11,NNE,31,0.0,-999.0,99,-99.99,,,0.00,weatherlink.com 1.10,2013-05-08 10:04:00,
2013-05-08 06:19:00,57.3,57.0,30.11,NNE,33,0.0,-999.0,98,-99.99,,,0.00,weatherlink.com 1.10,2013-05-08 10:19:00,
2013-05-08 06:34:00,57.5,57.0,30.11,NNE,33,0.0,-999.0,98,-99.99,,,0.00,weatherlink.com 1.10,2013-05-08 10:34:00,
2013-05-08 06:49:00,58.2,58.0,30.11,North,5,0.0,-999.0,98,-99.99,,,0.00,weatherlink.com 1.10,2013-05-08 10:49:00,
2013-05-08 07:04:00,59.1,59.0,30.12,East,92,0.0,-999.0,98,-99.99,,,0.00,weatherlink.com 1.10,2013-05-08 11:04:00,
2013-05-08 07:19:00,60.0,59.0,30.12,East,92,2.0,-999.0,97,-99.99,,,0.00,weatherlink.com 1.10,2013-05-08 11:19:00,
2013-05-08 07:34:00,60.8,60.0,30.12,NE,44,0.0,-999.0,96,-99.99,,,0.00,weatherlink.com 1.10,2013-05-08 11:34:00,
2013-05-08 07:49:00,61.7,60.0,30.13,NNE,22,0.0,-999.0,95,-99.99,,,0.00,weatherlink.com 1.10,2013-05-08 11:49:00,
2013-05-08 08:04:00,62.8,61.0,30.12,SE,129,0.0,-999.0,94,-99.99,,,0.00,weatherlink.com 1.10,2013-05-08 12:04:00,
2013-05-08 08:19:00,64.3,62.0,30.12,East,90,3.0,-999.0,91,-99.99,,,0.00,weatherlink.com 1.10,2013-05-08 12:19:00,
2013-05-08 08:34:00,65.4,62.0,30.13,NE,36,2.0,-999.0,89,-99.99,,,0.00,weatherlink.com 1.10,2013-05-08 12:34:00,
2013-05-08 08:49:00,66.4,63.0,30.13,SE,128,2.0,-999.0,87,-99.99,,,0.00,weatherlink.com 1.10,2013-05-08 12:49:00,
2013-05-08 09:04:00,66.6,63.0,30.13,South,184,2.0,-999.0,87,-99.99,,,0.00,weatherlink.com 1.10,2013-05-08 13:04:00,
2013-05-08 09:19:00,66.9,63.0,30.13,ESE,113,2.0,-999.0,86,-99.99,,,0.00,weatherlink.com 1.10,2013-05-08 13:19:00,
2013-05-08 09:34:00,66.9,63.0,30.12,SSE,151,5.0,-999.0,86,-99.99,,,0.00,weatherlink.com 1.10,2013-05-08 13:34:00,
2013-05-08 09:49:00,66.7,62.0,30.13,SSE,157,4.0,-999.0,86,-99.99,,,0.00,weatherlink.com 1.10,2013-05-08 13:49:00,
2013-05-08 10:04:00,65.9,62.0,30.12,SE,124,0.0,-999.0,86,-99.99,,,0.00,weatherlink.com 1.10,2013-05-08 14:04:00,
2013-05-08 10:19:00,65.1,62.0,30.12,ESE,118,0.0,-999.0,88,-99.99,,,0.00,weatherlink.com 1.10,2013-05-08 14:19:00,
2013-05-08 10:34:00,64.9,61.0,30.12,ESE,105,4.0,-999.0,88,-99.99,,,0.00,weatherlink.com 1.10,2013-05-08 14:34:00,
2013-05-08 10:49:00,64.8,61.0,30.12,SE,135,4.0,-999.0,88,-99.99,,,0.00,weatherlink.com 1.10,2013-05-08 14:49:00,
2013-05-08 11:04:00,64.7,62.0,30.12,SE,145,1.0,-999.0,89,-99.99,,,0.00,weatherlink.com 1.10,2013-05-08 15:04:00,
2013-05-08 11:19:00,64.7,62.0,30.11,SE,139,0.0,-999.0,89,-99.99,,,0.00,weatherlink.com 1.10,2013-05-08 15:19:00,
2013-05-08 11:34:00,64.3,62.0,30.10,ESE,108,4.0,-999.0,91,-99.99,,,0.00,weatherlink.com 1.10,2013-05-08 15:34:00,
2013-05-08 11:49:00,64.3,62.0,30.10,East,85,3.0,-999.0,93,-99.99,,,0.01,weatherlink.com 1.10,2013-05-08 15:49:00,
2013-05-08 12:04:00,65.3,63.0,30.09,NNE,12,4.0,-999.0,92,-99.99,,,0.01,weatherlink.com 1.10,2013-05-08 16:04:00,
2013-05-08 12:19:00,65.9,63.0,30.09,ESE,119,7.0,-999.0,89,-99.99,,,0.01,weatherlink.com 1.10,2013-05-08 16:19:00,
2013-05-08 12:34:00,65.5,62.0,30.08,East,90,0.0,-999.0,89,-99.99,,,0.01,weatherlink.com 1.10,2013-05-08 16:34:00,
2013-05-08 12:49:00,65.6,62.0,30.09,ESE,112,5.0,-999.0,89,-99.99,,,0.01,weatherlink.com 1.10,2013-05-08 16:49:00,
2013-05-08 13:04:00,65.0,62.0,30.08,ESE,113,3.0,-999.0,90,-99.99,,,0.01,weatherlink.com 1.10,2013-05-08 17:04:00,
2013-05-08 13:19:00,65.0,62.0,30.07,East,86,6.0,-999.0,89,-99.99,,,0.01,weatherlink.com 1.10,2013-05-08 17:19:00,
2013-05-08 13:34:00,64.9,62.0,30.08,ESE,112,9.0,-999.0,89,-99.99,,,0.01,weatherlink.com 1.10,2013-05-08 17:34:00,
2013-05-08 13:49:00,64.5,61.0,30.07,SE,127,3.0,-999.0,89,-99.99,,,0.01,weatherlink.com 1.10,2013-05-08 17:49:00,
2013-05-08 14:04:00,63.6,61.0,30.06,SE,132,5.0,-999.0,90,-99.99,,,0.01,weatherlink.com 1.10,2013-05-08 18:04:00,
2013-05-08 14:19:00,61.9,60.0,30.05,ENE,76,5.0,-999.0,94,-99.99,,,0.15,weatherlink.com 1.10,2013-05-08 18:19:00,
2013-05-08 14:34:00,60.9,60.0,30.06,SE,142,3.0,-999.0,96,-99.99,,,0.26,weatherlink.com 1.10,2013-05-08 18:34:00,
2013-05-08 14:49:00,60.4,59.0,30.05,SSE,159,3.0,-999.0,96,-99.99,,,0.26,weatherlink.com 1.10,2013-05-08 18:49:00,
2013-05-08 15:04:00,59.9,59.0,30.05,SSE,166,8.0,-999.0,96,-99.99,,,0.26,weatherlink.com 1.10,2013-05-08 19:04:00,
2013-05-08 15:19:00,59.8,59.0,30.06,SE,146,2.0,-999.0,97,-99.99,,,0.26,weatherlink.com 1.10,2013-05-08 19:19:00,
2013-05-08 15:34:00,59.8,59.0,30.06,East,87,5.0,-999.0,97,-99.99,,,0.26,weatherlink.com 1.10,2013-05-08 19:34:00,
2013-05-08 15:49:00,59.8,59.0,30.06,ESE,115,3.0,-999.0,97,-99.99,,,0.26,weatherlink.com 1.10,2013-05-08 19:49:00,
2013-05-08 16:04:00,59.6,59.0,30.06,ESE,114,4.0,-999.0,97,-99.99,,,0.26,weatherlink.com 1.10,2013-05-08 20:04:00,
2013-05-08 16:19:00,59.4,59.0,30.06,SE,132,3.0,-999.0,97,-99.99,,,0.26,weatherlink.com 1.10,2013-05-08 20:19:00,
2013-05-08 16:34:00,59.3,59.0,30.06,East,100,2.0,-999.0,97,-99.99,,,0.26,weatherlink.com 1.10,2013-05-08 20:34:00,
2013-05-08 16:49:00,59.2,59.0,30.05,SE,130,2.0,-999.0,98,-99.99,,,0.26,weatherlink.com 1.10,2013-05-08 20:49:00,
2013-05-08 17:04:00,59.3,59.0,30.05,SE,134,2.0,-999.0,98,-99.99,,,0.26,weatherlink.com 1.10,2013-05-08 21:04:00,
2013-05-08 17:19:00,59.2,58.0,30.05,SE,127,3.0,-999.0,97,-99.99,,,0.26,weatherlink.com 1.10,2013-05-08 21:19:00,
2013-05-08 17:34:00,59.1,59.0,30.04,ESE,103,5.0,-999.0,98,-99.99,,,0.26,weatherlink.com 1.10,2013-05-08 21:34:00,
2013-05-08 17:49:00,59.1,59.0,30.04,ESE,118,2.0,-999.0,98,-99.99,,,0.26,weatherlink.com 1.10,2013-05-08 21:49:00,
2013-05-08 18:04:00,59.2,59.0,30.04,SE,125,2.0,-999.0,98,-99.99,,,0.26,weatherlink.com 1.10,2013-05-08 22:04:00,
2013-05-08 18:19:00,59.2,59.0,30.03,ESE,121,1.0,-999.0,98,-99.99,,,0.26,weatherlink.com 1.10,2013-05-08 22:19:00,
2013-05-08 18:34:00,59.3,59.0,30.03,ESE,118,2.0,-999.0,98,-99.99,,,0.26,weatherlink.com 1.10,2013-05-08 22:34:00,
2013-05-08 18:49:00,59.4,59.0,30.03,SE,127,3.0,-999.0,98,-99.99,,,0.26,weatherlink.com 1.10,2013-05-08 22:49:00,
2013-05-08 19:04:00,59.2,59.0,30.03,SE,142,1.0,-999.0,98,-99.99,,,0.26,weatherlink.com 1.10,2013-05-08 23:04:00,
2013-05-08 19:19:00,58.9,58.0,30.03,ESE,111,4.0,-999.0,98,-99.99,,,0.26,weatherlink.com 1.10,2013-05-08 23:19:00,
2013-05-08 19:34:00,58.5,58.0,30.04,SE,144,0.0,-999.0,98,-99.99,,,0.26,weatherlink.com 1.10,2013-05-08 23:34:00,
2013-05-08 19:49:00,58.1,58.0,30.04,SE,143,2.0,-999.0,98,-99.99,,,0.26,weatherlink.com 1.10,2013-05-08 23:49:00,
2013-05-08 20:04:00,57.7,57.0,30.04,ESE,110,1.0,-999.0,98,-99.99,,,0.26,weatherlink.com 1.10,2013-05-09 00:04:00,
2013-05-08 20:19:00,57.3,57.0,30.04,SE,126,3.0,-999.0,98,-99.99,,,0.26,weatherlink.com 1.10,2013-05-09 00:19:00,
2013-05-08 20:34:00,57.0,57.0,30.04,SE,126,0.0,-999.0,98,-99.99,,,0.26,weatherlink.com 1.10,2013-05-09 00:34:00,
2013-05-08 20:49:00,56.8,56.0,30.04,SE,126,0.0,-999.0,98,-99.99,,,0.26,weatherlink.com 1.10,2013-05-09 00:49:00,
2013-05-08 21:04:00,56.7,56.0,30.05,SE,126,0.0,-999.0,98,-99.99,,,0.26,weatherlink.com 1.10,2013-05-09 01:04:00,
2013-05-08 21:19:00,56.6,56.0,30.04,SE,126,0.0,-999.0,98,-99.99,,,0.26,weatherlink.com 1.10,2013-05-09 01:19:00,
2013-05-08 21:34:00,56.5,56.0,30.05,SE,126,0.0,-999.0,98,-99.99,,,0.26,weatherlink.com 1.10,2013-05-09 01:34:00,
2013-05-08 21:49:00,56.5,56.0,30.05,SE,126,0.0,-999.0,98,-99.99,,,0.26,weatherlink.com 1.10,2013-05-09 01:49:00,
2013-05-08 22:04:00,56.5,56.0,30.05,SE,126,0.0,-999.0,98,-99.99,,,0.26,weatherlink.com 1.10,2013-05-09 02:04:00,
2013-05-08 22:19:00,56.6,56.0,30.05,SE,126,0.0,-999.0,98,-99.99,,,0.26,weatherlink.com 1.10,2013-05-09 02:19:00,
2013-05-08 22:34:00,56.6,56.0,30.04,SE,126,0.0,-999.0,98,-99.99,,,0.26,weatherlink.com 1.10,2013-05-09 02:34:00,
2013-05-08 22:49:00,56.6,56.0,30.04,SE,126,0.0,-999.0,98,-99.99,,,0.26,weatherlink.com 1.10,2013-05-09 02:49:00,
2013-05-08 23:04:00,56.6,56.0,30.03,SE,126,0.0,-999.0,98,-99.99,,,0.26,weatherlink.com 1.10,2013-05-09 03:04:00,
2013-05-08 23:19:00,56.6,56.0,30.03,SE,126,0.0,-999.0,98,-99.99,,,0.26,weatherlink.com 1.10,2013-05-09 03:19:00,
2013-05-08 23:34:00,56.7,56.0,30.03,SE,126,0.0,-999.0,98,-99.99,,,0.26,weatherlink.com 1.10,2013-05-09 03:34:00,
2013-05-08 23:49:00,56.7,57.0,30.03,SE,126,0.0,-999.0,99,-99.99,,,0.26,weatherlink.com 1.10,2013-05-09 03:49:00,